DW8548 Weather Reports


time (UTC)temp
C
wind
direction
speed
KPH
gust
KPH
rain 1hr
cm
rain 24hr
cm
rain mn
cm
humidity
%
barometer
mb
20260507060056 22 40 1.6 6.4 0.00 0.00 0.00 45 1027.4
20260507054636 22 231 1.6 6.4 0.00 0.00 0.00 48 1027.6
20260507053055 22 0 1.6 9.7 0.00 0.00 0.00 47 1027.7
20260507051556 22 34 1.6 11.3 0.00 0.00 0.00 48 1028.1
20260507050058 22 80 0.0 6.4 0.00 0.00 0.00 50 1028.3
20260507044559 21 69 3.2 12.9 0.00 0.00 0.00 50 1028.6
20260507043053 21 103 1.6 4.8 0.00 0.00 0.00 49 1029.0
20260507041600 21 59 1.6 11.3 0.00 0.00 0.00 50 1029.3
20260507040055 20 178 1.6 9.7 0.00 0.00 0.00 51 1029.5
20260507034558 20 0 1.6 6.4 0.00 0.00 0.00 51 1029.6
20260507033104 20 249 1.6 11.3 0.00 0.00 0.00 53 1029.9
20260507031606 19 39 1.6 12.9 0.00 0.00 0.00 55 1030.1
20260507030058 18 298 1.6 9.7 0.00 0.00 0.00 56 1030.4
20260507024557 18 0 1.6 8.0 0.00 0.00 0.00 57 1030.5
20260507023104 17 244 1.6 4.8 0.00 0.00 0.00 59 1030.6
20260507021553 17 202 1.6 6.4 0.00 0.00 0.00 59 1030.7
20260507020056 17 0 1.6 14.5 0.00 0.00 0.00 61 1030.8
20260507014603 16 0 0.0 6.4 0.00 0.00 0.00 65 1031.0
20260507013058 16 0 0.0 8.0 0.00 0.00 0.00 67 1031.2
20260507011551 15 129 0.0 6.4 0.00 0.00 0.00 69 1031.3
20260507010105 15 85 1.6 6.4 0.00 0.00 0.00 72 1031.2
20260507004556 14 86 1.6 9.7 0.00 0.00 0.00 75 1031.4
20260507003419 13 0 0.0 4.8 0.00 0.00 0.00 77 1031.5
20260507001559 12 134 1.6 6.4 0.00 0.00 0.00 78 1031.5
20260507000055 11 92 1.6 8.0 0.00 0.00 0.00 79 1031.6
20260506234554 11 0 0.0 4.8 0.00 0.00 0.00 80 1031.4
20260506233109 10 71 0.0 3.2 0.00 0.00 0.00 80 1031.1
20260506231559 10 0 0.0 4.8 0.00 0.00 0.00 81 1031.1
20260506230056 10 0 0.0 3.2 0.00 0.00 0.00 82 1030.8
20260506224555 9 97 0.0 4.8 0.00 0.00 0.00 83 1030.6
20260506223102 8 80 0.0 3.2 0.00 0.00 0.00 84 1030.3
20260506221558 8 0 0.0 0.0 0.00 0.00 0.00 84 1030.3
20260506220055 8 0 0.0 3.2 0.00 0.00 0.00 86 1030.2
20260506214552 8 0 0.0 3.2 0.00 0.00 0.00 86 1030.2
20260506213112 8 0 0.0 0.0 0.00 0.00 0.00 85 1030.2
20260506211551 8 0 0.0 0.0 0.00 0.00 0.00 84 1030.2
20260506210058 8 0 0.0 0.0 0.00 0.00 0.00 82 1029.9
20260506204555 9 0 0.0 0.0 0.00 0.00 0.00 81 1029.9
20260506203056 9 0 0.0 0.0 0.00 0.00 0.00 80 1029.6
20260506201558 10 0 0.0 3.2 0.00 0.00 0.00 78 1029.6
20260506200051 10 0 0.0 0.0 0.00 0.00 0.00 77 1029.5
20260506194556 10 0 0.0 0.0 0.00 0.00 0.00 75 1029.6
20260506193104 11 0 0.0 0.0 0.00 0.00 0.00 73 1029.5
20260506191555 12 0 0.0 1.6 0.00 0.00 0.00 71 1029.5
20260506190101 12 109 0.0 6.4 0.00 0.00 0.00 70 1029.4
20260506184557 12 64 0.0 8.0 0.00 0.00 0.00 72 1029.5
20260506183055 12 138 0.0 1.6 0.00 0.00 0.00 73 1029.6
20260506181554 12 0 0.0 3.2 0.00 0.00 0.00 73 1029.6
20260506180108 12 0 0.0 4.8 0.00 0.00 0.00 72 1029.6
20260506174556 12 0 0.0 3.2 0.00 0.00 0.00 72 1029.6
20260506173058 12 0 0.0 1.6 0.00 0.00 0.00 71 1029.6
20260506171601 12 0 0.0 3.2 0.00 0.00 0.00 70 1029.5
20260506170105 13 0 1.6 9.7 0.00 0.00 0.00 70 1029.4
20260506164557 13 99 0.0 14.5 0.00 0.00 0.00 70 1029.5
20260506163111 12 0 0.0 6.4 0.00 0.00 0.00 69 1029.5
20260506161606 13 0 0.0 6.4 0.00 0.00 0.00 68 1029.6
20260506160055 13 84 0.0 4.8 0.00 0.00 0.00 68 1029.7
20260506154610 13 79 0.0 4.8 0.00 0.00 0.00 69 1029.6
20260506153107 13 0 0.0 3.2 0.00 0.00 0.00 69 1029.5
20260506151558 13 0 0.0 4.8 0.00 0.00 0.00 70 1029.7
20260506144554 13 0 0.0 6.4 0.00 0.00 0.00 71 1029.6
20260506143103 13 0 0.0 1.6 0.00 0.00 0.00 72 1029.7
20260506141555 13 0 0.0 1.6 0.00 0.00 0.00 72 1029.7
20260506140057 13 0 0.0 1.6 0.00 0.00 0.00 73 1029.5
20260506134554 13 0 0.0 1.6 0.00 0.00 0.00 73 1029.5
20260506133057 13 0 0.0 3.2 0.00 0.00 0.00 72 1029.5
20260506131557 13 0 0.0 3.2 0.00 0.00 0.00 73 1029.4
20260506130053 13 0 0.0 1.6 0.00 0.00 0.00 74 1029.3
20260506124553 13 0 0.0 3.2 0.00 0.00 0.00 74 1029.0
20260506123052 13 0 0.0 1.6 0.00 0.00 0.00 76 1029.0
20260506121553 13 0 0.0 1.6 0.00 0.00 0.00 76 1028.9
20260506120058 13 0 0.0 0.0 0.00 0.00 0.00 76 1028.8
20260506114604 13 0 0.0 0.0 0.00 0.00 0.00 73 1028.7
20260506113053 14 0 0.0 0.0 0.00 0.00 0.00 72 1028.6
20260506111555 15 0 0.0 0.0 0.00 0.00 0.00 71 1028.5
20260506110101 15 0 0.0 0.0 0.00 0.00 0.00 69 1028.5
20260506104557 15 0 0.0 0.0 0.00 0.00 0.00 68 1028.5
20260506103052 16 0 0.0 0.0 0.00 0.00 0.00 66 1028.5
20260506101602 17 0 0.0 3.2 0.00 0.00 0.00 63 1028.3
20260506100057 17 0 0.0 4.8 0.00 0.00 0.00 60 1028.2
20260506094621 18 0 0.0 11.3 0.00 0.00 0.00 58 1028.1
20260506093055 18 88 1.6 11.3 0.00 0.00 0.00 57 1027.9
20260506091554 19 0 1.6 8.0 0.00 0.00 0.00 55 1027.8
20260506090053 20 104 1.6 9.7 0.00 0.00 0.00 55 1027.7
20260506084555 20 112 1.6 12.9 0.00 0.00 0.00 54 1027.7
20260506083059 20 111 1.6 9.7 0.00 0.00 0.00 53 1027.6
20260506081554 20 51 3.2 12.9 0.00 0.00 0.00 52 1027.6
20260506073053 21 102 1.6 16.1 0.00 0.00 0.00 50 1027.5
20260506071557 22 294 3.2 12.9 0.00 0.00 0.00 49 1027.4
20260506070103 22 181 1.6 12.9 0.00 0.00 0.00 49 1027.3
20260506061559 22 86 3.2 16.1 0.00 0.00 0.00 49 1027.2